This demonstration page uses our WeatherBlox Daily Observations layout. Learn more.

Left ArrowRight Arrow

Hourly Observations for October 20, 2015

Temp ( °F °C ) Dew Point ( °F °C ) Humidity (%) Winds ( mph kmh ) Pressure ( in mb ) Visibility ( mi km ) Precip ( " mm )
12:53 am 00:53 Clear 42 5.6 39 3.9 89 89 Calm 30.40 1029 10 16 0.00 0.00
1:53 am 01:53 Clear 41 5 38 3.3 89 89 Calm 30.39 1029 10 16 0.00 0.00
2:53 am 02:53 Clear 41 5 38 3.3 89 89 Calm 30.40 1029 10 16 0.00 0.00
3:53 am 03:53 Clear 40 4.4 37 2.8 89 89 Calm 30.39 1029 10 16 0.00 0.00
4:53 am 04:53 Clear 39 3.9 36 2.2 89 89 Calm 30.39 1029 10 16 0.00 0.00
5:53 am 05:53 Clear 40 4.4 37 2.8 89 89 Calm 30.40 1029 10 16 0.00 0.00
6:53 am 06:53 Clear 38 3.3 36 2.2 93 93 Calm 30.41 1030 10 16 0.00 0.00
7:53 am 07:53 Sunny 38 3.3 35 1.7 89 89 Calm 30.42 1030 10 16 0.00 0.00
8:53 am 08:53 Sunny 43 6.1 39 3.9 86 86 Calm 30.43 1031 10 16 0.00 0.00
9:53 am 09:53 Sunny 50 10 42 5.6 74 74 NNE 3 6 30.43 1030 10 16 0.00 0.00
10:53 am 10:53 Sunny 57 13.9 43 6.1 60 60 VRB 3 6 30.42 1030 10 16 0.00 0.00
11:53 am 11:53 Sunny 61 16.1 37 2.8 41 41 SE 6 9 30.41 1030 10 16 0.00 0.00
12:53 pm 12:53 Sunny 64 17.8 40 4.4 41 41 Calm 30.38 1029 10 16 0.00 0.00
1:53 pm 13:53 Sunny 67 19.4 42 5.6 41 41 Calm 30.35 1028 10 16 0.00 0.00
2:53 pm 14:53 Sunny 69 20.6 43 6.1 39 39 Calm 30.32 1027 10 16 0.00 0.00
3:53 pm 15:53 Sunny 71 21.7 44 6.7 38 38 NNE 5 7 30.29 1026 10 16 0.00 0.00
4:53 pm 16:53 Sunny 70 21.1 43 6.1 38 38 VRB 5 7 30.29 1026 10 16 0.00 0.00
5:53 pm 17:53 Sunny 70 21.1 43 6.1 38 38 NNE 3 6 30.28 1026 10 16 0.00 0.00
6:53 pm 18:53 Sunny 67 19.4 45 7.2 45 45 ESE 3 6 30.29 1026 10 16 0.00 0.00
7:53 pm 19:53 Clear 57 13.9 50 10 78 78 Calm 30.30 1026 10 16 0.00 0.00
8:53 pm 20:53 Clear 53 11.7 48 8.9 83 83 Calm 30.31 1026 10 16 0.00 0.00
9:53 pm 21:53 Clear 50 10 46 7.8 86 86 Calm 30.32 1027 10 16 0.00 0.00
10:53 pm 22:53 Clear 49 9.4 46 7.8 90 90 Calm 30.32 1027 10 16 0.00 0.00
11:53 pm 23:53 Clear 48 8.9 45 7.2 89 89 Calm 30.32 1027 10 16 0.00 0.00

Powered by AerisWeather